This is the latest recevied weather packets stored in our database for station/object OM8AKX-4. If no packets are shown the sender has not sent any weather packets the latest 10 day(s).
| Time | Temp. | Humidity | Pressure | Rain* | Wind** | Luminosity | Snow |
|---|---|---|---|---|---|---|---|
| 1777461876 | 1.67° C | 50% | 879.7 hPa | - | - | - | - |
| 1777460976 | 1.67° C | 50% | 879.6 hPa | - | - | - | - |
| 1777460076 | 1.67° C | 50% | 879.9 hPa | - | - | - | - |
| 1777459176 | 1.67° C | 49% | 879.8 hPa | - | - | - | - |
| 1777458275 | 1.67° C | 47% | 879.8 hPa | - | - | - | - |
| 1777457375 | 1.67° C | 47% | 879.8 hPa | - | - | - | - |
| 1777456475 | 1.67° C | 47% | 879.7 hPa | - | - | - | - |
| 1777455574 | 1.67° C | 48% | 879.8 hPa | - | - | - | - |
| 1777454674 | 1.67° C | 47% | 879.6 hPa | - | - | - | - |
| 1777453774 | 1.11° C | 48% | 879.6 hPa | - | - | - | - |
| 1777452874 | 1.11° C | 48% | 879.8 hPa | - | - | - | - |
| 1777451974 | 1.11° C | 49% | 879.7 hPa | - | - | - | - |
| 1777451074 | 0° C | 50% | 879.5 hPa | - | - | - | - |
| 1777450174 | 0.56° C | 50% | 879.6 hPa | - | - | - | - |
| 1777449274 | 0° C | 51% | 879.7 hPa | - | - | - | - |
| 1777448374 | 0° C | 50% | 879.5 hPa | - | - | - | - |
| 1777447474 | 0° C | 51% | 879.3 hPa | - | - | - | - |
| 1777446576 | 0° C | 52% | 879.3 hPa | - | - | - | - |
| 1777445676 | -0.56° C | 52% | 879.4 hPa | - | - | - | - |
| 1777444776 | -0.56° C | 52% | 879.3 hPa | - | - | - | - |
| 1777443876 | -0.56° C | 51% | 879.2 hPa | - | - | - | - |
| 1777442976 | -0.56° C | 50% | 879.1 hPa | - | - | - | - |
| 1777442075 | 0° C | 48% | 879.2 hPa | - | - | - | - |
| 1777441175 | 2.22° C | 44% | 879 hPa | - | - | - | - |
| 1777440275 | 2.78° C | 42% | 878.8 hPa | - | - | - | - |
* Rain since midnight (hover to see other rain measurements)
** Current wind speed in m/s (hover to see current wind gust speed)